User: anonymous   Login
Location: Linz
(48.3300°N, 14.3000°E)
Time: 18:18:16
(UTC+01:00)
Language:

YUBILEINY - Orbit

View from above orbital plane
View from above orbital plane
View from above satellite
View from above satellite

Ground track
Ground track

The orbit data is extracted from the following two-line orbital elements,

1 32953U 08025A   19321.03473012  .00000021  00000-0  75656-4 0  9999
2 32953  82.5072  50.6385 0019944 157.4246 202.7730 12.43092183521115
Epoch (UTC): 17 November 2019 00:50:00
Eccentricity: 0.0019944
inclination: 82.5072°
perigee height: 1478 km
apogee height: 1509 km
right ascension of ascending node: 50.6385°
argument of perigee: 157.4246°
revolutions per day: 12.43092183
mean anomaly at epoch: 202.7730°
orbit number at epoch: 52111

The dashed part of the orbit path shows where the satellite is in the earth's shadow,  

DLR